| time (UTC) | temp C | wind direction | speed KPH | gust KPH | rain 1hr cm | rain 24hr cm | rain mn cm | humidity % | barometer mb |
| 20260502123025 | 25 | 76 | 14.5 | 20.9 | 0.00 | 0.00 | 0.00 | 25 | 1019.3 |
| 20260502122022 | 25 | 81 | 11.3 | 22.5 | 0.00 | 0.00 | 0.00 | 24 | 1019.3 |
| 20260502121020 | 25 | 92 | 12.9 | 20.9 | 0.00 | 0.00 | 0.00 | 27 | 1019.5 |
| 20260502115035 | 24 | 76 | 12.9 | 24.1 | 0.00 | 0.00 | 0.00 | 26 | 1019.9 |
| 20260502114027 | 25 | 46 | 12.9 | 20.9 | 0.00 | 0.00 | 0.00 | 26 | 1020.0 |
| 20260502113025 | 25 | 91 | 9.7 | 16.1 | 0.00 | 0.00 | 0.00 | 26 | 1019.9 |
| 20260502112022 | 25 | 90 | 11.3 | 19.3 | 0.00 | 0.00 | 0.00 | 25 | 1020.0 |
| 20260502111040 | 25 | 123 | 11.3 | 20.9 | 0.00 | 0.00 | 0.00 | 27 | 1020.2 |
| 20260502110017 | 25 | 22 | 14.5 | 22.5 | 0.00 | 0.00 | 0.00 | 27 | 1020.3 |
| 20260502105015 | 25 | 127 | 12.9 | 25.7 | 0.00 | 0.00 | 0.00 | 27 | 1020.2 |
| 20260502104048 | 25 | 67 | 9.7 | 16.1 | 0.00 | 0.00 | 0.00 | 28 | 1020.2 |
| 20260502103025 | 24 | 107 | 11.3 | 19.3 | 0.00 | 0.00 | 0.00 | 27 | 1020.4 |
| 20260502102022 | 24 | 93 | 11.3 | 24.1 | 0.00 | 0.00 | 0.00 | 27 | 1020.5 |
| 20260502101021 | 24 | 29 | 12.9 | 17.7 | 0.00 | 0.00 | 0.00 | 27 | 1020.7 |
| 20260502091020 | 23 | 76 | 9.7 | 17.7 | 0.00 | 0.00 | 0.00 | 31 | 1021.1 |
| 20260502071021 | 18 | 76 | 9.7 | 17.7 | 0.00 | 0.00 | 0.00 | 41 | 1022.5 |
| 20260502070018 | 17 | 83 | 9.7 | 14.5 | 0.00 | 0.00 | 0.00 | 41 | 1022.5 |
| 20260502065016 | 17 | 72 | 11.3 | 17.7 | 0.00 | 0.00 | 0.00 | 44 | 1022.6 |
| 20260502064028 | 16 | 75 | 9.7 | 17.7 | 0.00 | 0.00 | 0.00 | 45 | 1022.7 |
| 20260502063046 | 16 | 96 | 8.0 | 16.1 | 0.00 | 0.00 | 0.00 | 45 | 1022.8 |
| 20260502062024 | 16 | 78 | 9.7 | 16.1 | 0.00 | 0.00 | 0.00 | 45 | 1022.8 |
| 20260502061041 | 15 | 52 | 6.4 | 12.9 | 0.00 | 0.00 | 0.00 | 46 | 1022.9 |
| 20260502060019 | 15 | 67 | 6.4 | 8.0 | 0.00 | 0.00 | 0.00 | 47 | 1022.8 |
| 20260502055016 | 15 | 45 | 6.4 | 9.7 | 0.00 | 0.00 | 0.00 | 48 | 1022.9 |
| 20260502054049 | 14 | 71 | 6.4 | 8.0 | 0.00 | 0.00 | 0.00 | 49 | 1022.9 |
| 20260502053026 | 13 | 61 | 4.8 | 6.4 | 0.00 | 0.00 | 0.00 | 50 | 1023.0 |
| 20260502052044 | 13 | 70 | 4.8 | 6.4 | 0.00 | 0.00 | 0.00 | 51 | 1023.0 |
| 20260502051021 | 12 | 51 | 4.8 | 6.4 | 0.00 | 0.00 | 0.00 | 53 | 1023.1 |
| 20260502050019 | 12 | 68 | 4.8 | 6.4 | 0.00 | 0.00 | 0.00 | 57 | 1023.0 |
| 20260502045016 | 12 | 66 | 3.2 | 6.4 | 0.00 | 0.00 | 0.00 | 60 | 1023.1 |
| 20260502044029 | 11 | 51 | 3.2 | 4.8 | 0.00 | 0.00 | 0.00 | 62 | 1023.0 |
| 20260502043046 | 10 | 58 | 3.2 | 4.8 | 0.00 | 0.00 | 0.00 | 64 | 1023.0 |
| 20260502042024 | 9 | 63 | 3.2 | 4.8 | 0.00 | 0.00 | 0.00 | 64 | 1023.1 |
| 20260502041041 | 10 | 77 | 0.0 | 3.2 | 0.00 | 0.00 | 0.00 | 66 | 1023.1 |
| 20260502040019 | 8 | 0.0 | 1.6 | 0.00 | 0.00 | 0.00 | 69 | 1023.2 | |
| 20260502035017 | 8 | 90 | 1.6 | 3.2 | 0.00 | 0.00 | 0.00 | 68 | 1023.1 |
| 20260502034049 | 8 | 78 | 1.6 | 4.8 | 0.00 | 0.00 | 0.00 | 67 | 1023.2 |
| 20260502033027 | 8 | 90 | 0.0 | 3.2 | 0.00 | 0.00 | 0.00 | 65 | 1023.3 |
| 20260502032044 | 8 | 0.0 | 0.0 | 0.00 | 0.00 | 0.00 | 63 | 1023.4 | |
| 20260502031041 | 8 | 0.0 | 0.0 | 0.00 | 0.00 | 0.00 | 62 | 1023.3 | |
| 20260502030039 | 8 | 0.0 | 0.0 | 0.00 | 0.00 | 0.00 | 61 | 1023.4 | |
| 20260502025036 | 9 | 0.0 | 0.0 | 0.00 | 0.00 | 0.00 | 61 | 1023.4 | |
| 20260502024029 | 10 | 90 | 0.0 | 3.2 | 0.00 | 0.00 | 0.00 | 60 | 1023.4 |
| 20260502023027 | 10 | 83 | 3.2 | 6.4 | 0.00 | 0.00 | 0.00 | 60 | 1023.4 |
| 20260502022024 | 10 | 82 | 4.8 | 6.4 | 0.00 | 0.00 | 0.00 | 59 | 1023.5 |
| 20260502021022 | 10 | 90 | 4.8 | 6.4 | 0.00 | 0.00 | 0.00 | 59 | 1023.5 |
| 20260502020019 | 10 | 84 | 4.8 | 6.4 | 0.00 | 0.00 | 0.00 | 59 | 1023.7 |
| 20260502015017 | 10 | 85 | 3.2 | 4.8 | 0.00 | 0.00 | 0.00 | 58 | 1023.6 |
| 20260502014030 | 11 | 81 | 3.2 | 4.8 | 0.00 | 0.00 | 0.00 | 56 | 1023.7 |
| 20260502013027 | 11 | 84 | 3.2 | 4.8 | 0.00 | 0.00 | 0.00 | 54 | 1023.8 |
| 20260502012025 | 11 | 88 | 4.8 | 8.0 | 0.00 | 0.00 | 0.00 | 54 | 1023.9 |
| 20260502011042 | 11 | 90 | 4.8 | 8.0 | 0.00 | 0.00 | 0.00 | 56 | 1023.8 |
| 20260502010019 | 11 | 90 | 0.0 | 4.8 | 0.00 | 0.00 | 0.00 | 61 | 1023.8 |
| 20260502005017 | 11 | 45 | 0.0 | 3.2 | 0.00 | 0.00 | 0.00 | 65 | 1023.9 |
| 20260502004030 | 11 | 0.0 | 0.0 | 0.00 | 0.00 | 0.00 | 66 | 1023.9 | |
| 20260502003027 | 11 | 0.0 | 1.6 | 0.00 | 0.00 | 0.00 | 68 | 1024.1 | |
| 20260502002024 | 10 | 0.0 | 1.6 | 0.00 | 0.00 | 0.00 | 69 | 1024.0 | |
| 20260502001022 | 10 | 0.0 | 0.0 | 0.00 | 0.00 | 0.00 | 68 | 1024.2 | |
| 20260502000019 | 10 | 0.0 | 0.0 | 0.00 | 0.00 | 0.00 | 69 | 1024.2 | |
| 20260501235017 | 10 | 0.0 | 0.0 | 0.00 | 0.00 | 0.00 | 69 | 1024.3 | |
| 20260501234030 | 10 | 0.0 | 0.0 | 0.00 | 0.00 | 0.00 | 68 | 1024.2 | |
| 20260501233027 | 10 | 0.0 | 0.0 | 0.00 | 0.00 | 0.00 | 66 | 1024.3 | |
| 20260501232025 | 11 | 0.0 | 0.0 | 0.00 | 0.00 | 0.00 | 64 | 1024.5 | |
| 20260501231022 | 11 | 0.0 | 0.0 | 0.00 | 0.00 | 0.00 | 64 | 1024.4 | |
| 20260501230020 | 11 | 0.0 | 0.0 | 0.00 | 0.00 | 0.00 | 62 | 1024.5 | |
| 20260501225018 | 11 | 0.0 | 0.0 | 0.00 | 0.00 | 0.00 | 61 | 1024.5 | |
| 20260501224035 | 12 | 90 | 0.0 | 3.2 | 0.00 | 0.00 | 0.00 | 61 | 1024.5 |
| 20260501223027 | 12 | 0.0 | 0.0 | 0.00 | 0.00 | 0.00 | 60 | 1024.5 | |
| 20260501222026 | 12 | 0.0 | 0.0 | 0.00 | 0.00 | 0.00 | 52 | 1024.7 | |
| 20260501221022 | 12 | 90 | 1.6 | 4.8 | 0.00 | 0.00 | 0.00 | 51 | 1024.6 |
| 20260501220020 | 12 | 62 | 1.6 | 4.8 | 0.00 | 0.00 | 0.00 | 51 | 1024.7 |
| 20260501215018 | 12 | 0.0 | 0.0 | 0.00 | 0.00 | 0.00 | 48 | 1024.9 | |
| 20260501214015 | 13 | 0.0 | 0.0 | 0.00 | 0.00 | 0.00 | 48 | 1024.9 | |
| 20260501213028 | 13 | 45 | 0.0 | 3.2 | 0.00 | 0.00 | 0.00 | 46 | 1024.8 |
| 20260501212025 | 13 | 0.0 | 1.6 | 0.00 | 0.00 | 0.00 | 46 | 1024.8 | |
| 20260501211043 | 13 | 45 | 0.0 | 1.6 | 0.00 | 0.00 | 0.00 | 47 | 1024.9 |
| 20260501210021 | 12 | 0.0 | 1.6 | 0.00 | 0.00 | 0.00 | 46 | 1024.8 | |
| 20260501205018 | 12 | 0.0 | 0.0 | 0.00 | 0.00 | 0.00 | 45 | 1024.8 | |
| 20260501204015 | 12 | 0.0 | 0.0 | 0.00 | 0.00 | 0.00 | 45 | 1024.9 | |
| 20260501203028 | 12 | 0.0 | 0.0 | 0.00 | 0.00 | 0.00 | 44 | 1025.0 | |
| 20260501202026 | 13 | 0.0 | 1.6 | 0.00 | 0.00 | 0.00 | 43 | 1025.1 | |
| 20260501201023 | 13 | 0.0 | 1.6 | 0.00 | 0.00 | 0.00 | 42 | 1025.0 | |
| 20260501200021 | 13 | 0.0 | 1.6 | 0.00 | 0.00 | 0.00 | 42 | 1025.1 | |
| 20260501195018 | 14 | 0.0 | 3.2 | 0.00 | 0.00 | 0.00 | 41 | 1025.2 | |
| 20260501194016 | 15 | 135 | 0.0 | 3.2 | 0.00 | 0.00 | 0.00 | 41 | 1025.2 |
| 20260501193028 | 15 | 0.0 | 1.6 | 0.00 | 0.00 | 0.00 | 41 | 1025.1 | |
| 20260501192026 | 15 | 0.0 | 1.6 | 0.00 | 0.00 | 0.00 | 41 | 1025.2 | |
| 20260501191023 | 15 | 0.0 | 1.6 | 0.00 | 0.00 | 0.00 | 40 | 1025.1 | |
| 20260501190021 | 16 | 0.0 | 1.6 | 0.00 | 0.00 | 0.00 | 40 | 1025.1 | |
| 20260501185018 | 16 | 45 | 0.0 | 3.2 | 0.00 | 0.00 | 0.00 | 38 | 1025.1 |
| 20260501184017 | 17 | 0.0 | 1.6 | 0.00 | 0.00 | 0.00 | 36 | 1025.2 | |
| 20260501183029 | 17 | 0.0 | 1.6 | 0.00 | 0.00 | 0.00 | 32 | 1025.0 | |
| 20260501182046 | 18 | 45 | 0.0 | 3.2 | 0.00 | 0.00 | 0.00 | 32 | 1025.0 |
| 20260501181024 | 18 | 315 | 0.0 | 3.2 | 0.00 | 0.00 | 0.00 | 31 | 1025.0 |
| 20260501180021 | 19 | 0.0 | 1.6 | 0.00 | 0.00 | 0.00 | 31 | 1025.0 | |
| 20260501175019 | 20 | 20 | 1.6 | 9.7 | 0.00 | 0.00 | 0.00 | 31 | 1025.0 |
| 20260501174016 | 20 | 34 | 0.0 | 3.2 | 0.00 | 0.00 | 0.00 | 30 | 1025.0 |
| 20260501173029 | 20 | 341 | 0.0 | 6.4 | 0.00 | 0.00 | 0.00 | 30 | 1025.0 |
| 20260501172026 | 20 | 87 | 3.2 | 6.4 | 0.00 | 0.00 | 0.00 | 30 | 1024.9 |
| 20260501171024 | 21 | 307 | 3.2 | 8.0 | 0.00 | 0.00 | 0.00 | 30 | 1025.0 |
| 20260501170041 | 21 | 63 | 1.6 | 6.4 | 0.00 | 0.00 | 0.00 | 30 | 1025.2 |
| 20260501165019 | 21 | 336 | 1.6 | 6.4 | 0.00 | 0.00 | 0.00 | 30 | 1025.1 |
| 20260501164036 | 22 | 39 | 1.6 | 4.8 | 0.00 | 0.00 | 0.00 | 30 | 1025.1 |
| 20260501163029 | 22 | 20 | 8.0 | 16.1 | 0.00 | 0.00 | 0.00 | 31 | 1025.1 |
| 20260501162026 | 22 | 35 | 9.7 | 17.7 | 0.00 | 0.00 | 0.00 | 29 | 1025.0 |
| 20260501161044 | 22 | 14 | 9.7 | 17.7 | 0.00 | 0.00 | 0.00 | 27 | 1025.2 |
| 20260501160022 | 23 | 12 | 11.3 | 17.7 | 0.00 | 0.00 | 0.00 | 27 | 1025.3 |
| 20260501155019 | 25 | 6 | 11.3 | 17.7 | 0.00 | 0.00 | 0.00 | 23 | 1025.3 |
| 20260501154017 | 28 | 46 | 1.6 | 6.4 | 0.00 | 0.00 | 0.00 | 14 | 1025.4 |
| 20260501153029 | 29 | 352 | 0.0 | 3.2 | 0.00 | 0.00 | 0.00 | 13 | 1025.6 |
| 20260501152047 | 28 | 0.0 | 3.2 | 0.00 | 0.00 | 0.00 | 13 | 1025.6 | |
| 20260501151025 | 28 | 98 | 0.0 | 3.2 | 0.00 | 0.00 | 0.00 | 13 | 1025.6 |